����������;��������(kWh)
2016-05-02 00:00;68,85
2016-05-02 00:15;70,5
2016-05-02 00:30;69,25
2016-05-02 00:45;71
2016-05-02 01:00;69,5
2016-05-02 01:15;69,05
2016-05-02 01:30;70,4
2016-05-02 01:45;67,9
2016-05-02 02:00;69,55
2016-05-02 02:15;68,65
2016-05-02 02:30;68,05
2016-05-02 02:45;67,65
2016-05-02 03:00;65,4
2016-05-02 03:15;67,2
2016-05-02 03:30;65,55
2016-05-02 03:45;67,35
2016-05-02 04:00;66,7
2016-05-02 04:15;66,9
2016-05-02 04:30;67,35
2016-05-02 04:45;66,55
2016-05-02 05:00;66,75
2016-05-02 05:15;66,2
2016-05-02 05:30;67,35
2016-05-02 05:45;67,9
2016-05-02 06:00;65,6
2016-05-02 06:15;68,65
2016-05-02 06:30;66,05
2016-05-02 06:45;65,9
2016-05-02 07:00;64,4
2016-05-02 07:15;61,35
2016-05-02 07:30;62,25
2016-05-02 07:45;60,25
2016-05-02 08:00;62,35
2016-05-02 08:15;62,2
2016-05-02 08:30;63,5
2016-05-02 08:45;61
2016-05-02 09:00;62,65
2016-05-02 09:15;62,55
2016-05-02 09:30;62
2016-05-02 09:45;60,7
2016-05-02 10:00;60,2
2016-05-02 10:15;63,4
2016-05-02 10:30;63,05
2016-05-02 10:45;65,4
2016-05-02 11:00;72,05
2016-05-02 11:15;69,5
2016-05-02 11:30;69,1
2016-05-02 11:45;70,8
2016-05-02 12:00;67,9
2016-05-02 12:15;61
2016-05-02 12:30;62,35
2016-05-02 12:45;62,6
2016-05-02 13:00;63,55
2016-05-02 13:15;62,35
2016-05-02 13:30;64,1
2016-05-02 13:45;62,65
2016-05-02 14:00;63,6
2016-05-02 14:15;62,5
2016-05-02 14:30;62,75
2016-05-02 14:45;62,25
2016-05-02 15:00;61,45
2016-05-02 15:15;63,9
2016-05-02 15:30;64,4
2016-05-02 15:45;62,95
2016-05-02 16:00;64,7
2016-05-02 16:15;64,75
2016-05-02 16:30;61,35
2016-05-02 16:45;64,35
2016-05-02 17:00;63,15
2016-05-02 17:15;60
2016-05-02 17:30;62,9
2016-05-02 17:45;62,05
2016-05-02 18:00;63,2
2016-05-02 18:15;61,85
2016-05-02 18:30;63,5
2016-05-02 18:45;62,4
2016-05-02 19:00;64
2016-05-02 19:15;64,2
2016-05-02 19:30;63,7
2016-05-02 19:45;64
2016-05-02 20:00;63,25
2016-05-02 20:15;64,15
2016-05-02 20:30;66,05
2016-05-02 20:45;67,25
2016-05-02 21:00;67,4
2016-05-02 21:15;70,55
2016-05-02 21:30;69,9
2016-05-02 21:45;69,65
2016-05-02 22:00;67,75
2016-05-02 22:15;69
2016-05-02 22:30;69,05
2016-05-02 22:45;67,6
2016-05-02 23:00;69
2016-05-02 23:15;65,6
2016-05-02 23:30;67,6
2016-05-02 23:45;67,25
2016-05-03 00:00;70,55
2016-05-03 00:15;74,1
2016-05-03 00:30;72,1
2016-05-03 00:45;75,25
2016-05-03 01:00;75,15
2016-05-03 01:15;68,1
2016-05-03 01:30;65,75
2016-05-03 01:45;64,25
2016-05-03 02:00;66,25
2016-05-03 02:15;65
2016-05-03 02:30;65,8
2016-05-03 02:45;65,3
2016-05-03 03:00;65,75
2016-05-03 03:15;65,95
2016-05-03 03:30;64,5
2016-05-03 03:45;66,2
2016-05-03 04:00;65,6
2016-05-03 04:15;66,5
2016-05-03 04:30;67,4
2016-05-03 04:45;66,05
2016-05-03 05:00;66,75
2016-05-03 05:15;65,55
2016-05-03 05:30;67,5
2016-05-03 05:45;65,8
2016-05-03 06:00;65,5
2016-05-03 06:15;67,15
2016-05-03 06:30;62,25
2016-05-03 06:45;61,35
2016-05-03 07:00;60,15
2016-05-03 07:15;60,85
2016-05-03 07:30;59,95
2016-05-03 07:45;61,4
2016-05-03 08:00;59,45
2016-05-03 08:15;60,5
2016-05-03 08:30;60,75
2016-05-03 08:45;58,6
2016-05-03 09:00;61,15
2016-05-03 09:15;60,75
2016-05-03 09:30;61,9
2016-05-03 09:45;58,9
2016-05-03 10:00;59,9
2016-05-03 10:15;59,75
2016-05-03 10:30;62,75
2016-05-03 10:45;61,85
2016-05-03 11:00;64,95
2016-05-03 11:15;60
2016-05-03 11:30;61,95
2016-05-03 11:45;59,75
2016-05-03 12:00;61,35
2016-05-03 12:15;60,1
2016-05-03 12:30;61,4
2016-05-03 12:45;61,05
2016-05-03 13:00;62,5
2016-05-03 13:15;60,3
2016-05-03 13:30;61,7
2016-05-03 13:45;59,85
2016-05-03 14:00;63,1
2016-05-03 14:15;59,85
2016-05-03 14:30;60,8
2016-05-03 14:45;58,8
2016-05-03 15:00;60,8
2016-05-03 15:15;60,8
2016-05-03 15:30;61,9
2016-05-03 15:45;62,35
2016-05-03 16:00;62,35
2016-05-03 16:15;62,55
2016-05-03 16:30;62,95
2016-05-03 16:45;63,4
2016-05-03 17:00;63,15
2016-05-03 17:15;62,3
2016-05-03 17:30;63
2016-05-03 17:45;64,7
2016-05-03 18:00;63,9
2016-05-03 18:15;63,5
2016-05-03 18:30;65,1
2016-05-03 18:45;65,8
2016-05-03 19:00;63,15
2016-05-03 19:15;66,15
2016-05-03 19:30;63,4
2016-05-03 19:45;64,35
2016-05-03 20:00;64,65
2016-05-03 20:15;67,05
2016-05-03 20:30;69,2
2016-05-03 20:45;66,9
2016-05-03 21:00;70,2
2016-05-03 21:15;68,05
2016-05-03 21:30;68,7
2016-05-03 21:45;68,65
2016-05-03 22:00;68,45
2016-05-03 22:15;70,15
2016-05-03 22:30;68,45
2016-05-03 22:45;69,55
2016-05-03 23:00;66,75
2016-05-03 23:15;66,6
2016-05-03 23:30;67,75
2016-05-03 23:45;66,55
2016-05-04 00:00;68,15
2016-05-04 00:15;66,8
2016-05-04 00:30;67,8
2016-05-04 00:45;67,15
2016-05-04 01:00;67,8
2016-05-04 01:15;67,75
2016-05-04 01:30;66,15
2016-05-04 01:45;68,45
2016-05-04 02:00;66,3
2016-05-04 02:15;68,1
2016-05-04 02:30;67,45
2016-05-04 02:45;66,15
2016-05-04 03:00;67,9
2016-05-04 03:15;66,4
2016-05-04 03:30;66,8
2016-05-04 03:45;67,4
2016-05-04 04:00;67,65
2016-05-04 04:15;67,2
2016-05-04 04:30;67,6
2016-05-04 04:45;66,7
2016-05-04 05:00;67,7
2016-05-04 05:15;65,4
2016-05-04 05:30;67,35
2016-05-04 05:45;66,8
2016-05-04 06:00;66,7
2016-05-04 06:15;67,35
2016-05-04 06:30;63,4
2016-05-04 06:45;62,3
2016-05-04 07:00;60,3
2016-05-04 07:15;61,4
2016-05-04 07:30;60,75
2016-05-04 07:45;60,45
2016-05-04 08:00;62,15
2016-05-04 08:15;62,45
2016-05-04 08:30;68,7
2016-05-04 08:45;67,2
2016-05-04 09:00;71,4
2016-05-04 09:15;70,95
2016-05-04 09:30;70,75
2016-05-04 09:45;62,35
2016-05-04 10:00;62,05
2016-05-04 10:15;63,85
2016-05-04 10:30;62,25
2016-05-04 10:45;64,65
2016-05-04 11:00;66,25
2016-05-04 11:15;64
2016-05-04 11:30;63,85
2016-05-04 11:45;62,6
2016-05-04 12:00;65,35
2016-05-04 12:15;62,6
2016-05-04 12:30;66,2
2016-05-04 12:45;64,4
2016-05-04 13:00;64,7
2016-05-04 13:15;63,25
2016-05-04 13:30;64,3
2016-05-04 13:45;63,2
2016-05-04 14:00;64,05
2016-05-04 14:15;63,75
2016-05-04 14:30;64,65
2016-05-04 14:45;64,25
2016-05-04 15:00;62,6
2016-05-04 15:15;65,75
2016-05-04 15:30;64,9
2016-05-04 15:45;65,75
2016-05-04 16:00;65,5
2016-05-04 16:15;66,4
2016-05-04 16:30;64,2
2016-05-04 16:45;65,3
2016-05-04 17:00;66,5
2016-05-04 17:15;66,4
2016-05-04 17:30;66,75
2016-05-04 17:45;67,15
2016-05-04 18:00;68,05
2016-05-04 18:15;65,8
2016-05-04 18:30;66
2016-05-04 18:45;64,6
2016-05-04 19:00;66,75
2016-05-04 19:15;64,95
2016-05-04 19:30;68,45
2016-05-04 19:45;66,05
2016-05-04 20:00;66,45
2016-05-04 20:15;68,95
2016-05-04 20:30;70,25
2016-05-04 20:45;76,15
2016-05-04 21:00;73,35
2016-05-04 21:15;74,45
2016-05-04 21:30;74,5
2016-05-04 21:45;77
2016-05-04 22:00;73,95
2016-05-04 22:15;72,85
2016-05-04 22:30;72,25
2016-05-04 22:45;72,2
2016-05-04 23:00;73,6
2016-05-04 23:15;69,35
2016-05-04 23:30;70,1
2016-05-04 23:45;71
2016-05-05 00:00;70
2016-05-05 00:15;72,15
2016-05-05 00:30;70,5
2016-05-05 00:45;71,45
2016-05-05 01:00;72,65
2016-05-05 01:15;69,35
2016-05-05 01:30;71,55
2016-05-05 01:45;67,8
2016-05-05 02:00;69,25
2016-05-05 02:15;69,25
2016-05-05 02:30;66
2016-05-05 02:45;67,45
2016-05-05 03:00;66,4
2016-05-05 03:15;66,2
2016-05-05 03:30;63,6
2016-05-05 03:45;66,4
2016-05-05 04:00;65,8
2016-05-05 04:15;65,75
2016-05-05 04:30;68,1
2016-05-05 04:45;64,95
2016-05-05 05:00;65,95
2016-05-05 05:15;63,45
2016-05-05 05:30;67,05
2016-05-05 05:45;68,35
2016-05-05 06:00;66,35
2016-05-05 06:15;65,8
2016-05-05 06:30;64,2
2016-05-05 06:45;66,4
2016-05-05 07:00;62,5
2016-05-05 07:15;67,2
2016-05-05 07:30;67
2016-05-05 07:45;69,7
2016-05-05 08:00;67,4
2016-05-05 08:15;66,7
2016-05-05 08:30;70,7
2016-05-05 08:45;70,6
2016-05-05 09:00;69,8
2016-05-05 09:15;71,45
2016-05-05 09:30;72,85
2016-05-05 09:45;72,8
2016-05-05 10:00;74,55
2016-05-05 10:15;77,75
2016-05-05 10:30;73,55
2016-05-05 10:45;65,15
2016-05-05 11:00;81,5
2016-05-05 11:15;77,7
2016-05-05 11:30;78,7
2016-05-05 11:45;77,4
2016-05-05 12:00;79,8
2016-05-05 12:15;78,2
2016-05-05 12:30;79,25
2016-05-05 12:45;77,45
2016-05-05 13:00;81,75
2016-05-05 13:15;80
2016-05-05 13:30;81,55
2016-05-05 13:45;79,55
2016-05-05 14:00;82,4
2016-05-05 14:15;82,3
2016-05-05 14:30;81,2
2016-05-05 14:45;78,45
2016-05-05 15:00;80,25
2016-05-05 15:15;82
2016-05-05 15:30;80,05
2016-05-05 15:45;78
2016-05-05 16:00;74,5
2016-05-05 16:15;74,85
2016-05-05 16:30;73,35
2016-05-05 16:45;73,8
2016-05-05 17:00;73,4
2016-05-05 17:15;73,45
2016-05-05 17:30;71,5
2016-05-05 17:45;73,95
2016-05-05 18:00;71,25
2016-05-05 18:15;72,15
2016-05-05 18:30;71,5
2016-05-05 18:45;70,4
2016-05-05 19:00;71,35
2016-05-05 19:15;69,55
2016-05-05 19:30;71,2
2016-05-05 19:45;74,8
2016-05-05 20:00;76,55
2016-05-05 20:15;76
2016-05-05 20:30;81,75
2016-05-05 20:45;86,4
2016-05-05 21:00;80,55
2016-05-05 21:15;78,15
2016-05-05 21:30;78,3
2016-05-05 21:45;78,95
2016-05-05 22:00;78,45
2016-05-05 22:15;76,95
2016-05-05 22:30;75,25
2016-05-05 22:45;76,95
2016-05-05 23:00;75,35
2016-05-05 23:15;75
2016-05-05 23:30;75
2016-05-05 23:45;74,7
2016-05-06 00:00;76
2016-05-06 00:15;72,65
2016-05-06 00:30;74,4
2016-05-06 00:45;75,55
2016-05-06 01:00;77,2
2016-05-06 01:15;74,75
2016-05-06 01:30;73,3
2016-05-06 01:45;75,05
2016-05-06 02:00;72,95
2016-05-06 02:15;74,4
2016-05-06 02:30;71,9
2016-05-06 02:45;69,4
2016-05-06 03:00;68,3
2016-05-06 03:15;69,65
2016-05-06 03:30;69,95
2016-05-06 03:45;68,95
2016-05-06 04:00;70,65
2016-05-06 04:15;68,25
2016-05-06 04:30;69,05
2016-05-06 04:45;66,9
2016-05-06 05:00;67,5
2016-05-06 05:15;68,6
2016-05-06 05:30;67,95
2016-05-06 05:45;67,85
2016-05-06 06:00;66,2
2016-05-06 06:15;67,4
2016-05-06 06:30;64,35
2016-05-06 06:45;59,05
2016-05-06 07:00;60,5
2016-05-06 07:15;64,55
2016-05-06 07:30;67,15
2016-05-06 07:45;71,45
2016-05-06 08:00;73,4
2016-05-06 08:15;73,15
2016-05-06 08:30;67,15
2016-05-06 08:45;66,8
2016-05-06 09:00;67,75
2016-05-06 09:15;71,55
2016-05-06 09:30;73,8
2016-05-06 09:45;74,1
2016-05-06 10:00;75,8
2016-05-06 10:15;79
2016-05-06 10:30;80,8
2016-05-06 10:45;77,9
2016-05-06 11:00;82,45
2016-05-06 11:15;79,25
2016-05-06 11:30;80,2
2016-05-06 11:45;80,65
2016-05-06 12:00;82,1
2016-05-06 12:15;79,75
2016-05-06 12:30;80,35
2016-05-06 12:45;81,75
2016-05-06 13:00;79,65
2016-05-06 13:15;81,7
2016-05-06 13:30;80,35
2016-05-06 13:45;82,35
2016-05-06 14:00;79,7
2016-05-06 14:15;80,35
2016-05-06 14:30;80,3
2016-05-06 14:45;79,1
2016-05-06 15:00;76,45
2016-05-06 15:15;75,15
2016-05-06 15:30;72,6
2016-05-06 15:45;72,35
2016-05-06 16:00;71,4
2016-05-06 16:15;70,15
2016-05-06 16:30;70,2
2016-05-06 16:45;68,6
2016-05-06 17:00;72,2
2016-05-06 17:15;69,2
2016-05-06 17:30;71,1
2016-05-06 17:45;68,8
2016-05-06 18:00;70
2016-05-06 18:15;68,4
2016-05-06 18:30;68,85
2016-05-06 18:45;66,7
2016-05-06 19:00;68
2016-05-06 19:15;66,7
2016-05-06 19:30;68,35
2016-05-06 19:45;67,35
2016-05-06 20:00;67,55
2016-05-06 20:15;67,45
2016-05-06 20:30;74,65
2016-05-06 20:45;79,25
2016-05-06 21:00;76,75
2016-05-06 21:15;78,6
2016-05-06 21:30;77,1
2016-05-06 21:45;78,05
2016-05-06 22:00;78,55
2016-05-06 22:15;75,05
2016-05-06 22:30;75,35
2016-05-06 22:45;76,9
2016-05-06 23:00;80,7
2016-05-06 23:15;78
2016-05-06 23:30;77,9
2016-05-06 23:45;79,1
2016-05-07 00:00;71,65
2016-05-07 00:15;70,85
2016-05-07 00:30;69,85
2016-05-07 00:45;71,6
2016-05-07 01:00;69,05
2016-05-07 01:15;69,65
2016-05-07 01:30;68,25
2016-05-07 01:45;69,8
2016-05-07 02:00;68,2
2016-05-07 02:15;69,15
2016-05-07 02:30;66,8
2016-05-07 02:45;66,85
2016-05-07 03:00;67,35
2016-05-07 03:15;65,65
2016-05-07 03:30;65,95
2016-05-07 03:45;65,1
2016-05-07 04:00;66,15
2016-05-07 04:15;64,3
2016-05-07 04:30;67,35
2016-05-07 04:45;65,85
2016-05-07 05:00;67,65
2016-05-07 05:15;66,6
2016-05-07 05:30;64,95
2016-05-07 05:45;67,2
2016-05-07 06:00;65,6
2016-05-07 06:15;66
2016-05-07 06:30;61,05
2016-05-07 06:45;60,95
2016-05-07 07:00;59,45
2016-05-07 07:15;60,85
2016-05-07 07:30;62,85
2016-05-07 07:45;58,55
2016-05-07 08:00;59,7
2016-05-07 08:15;58,6
2016-05-07 08:30;59,8
2016-05-07 08:45;59,75
2016-05-07 09:00;59,1
2016-05-07 09:15;62,75
2016-05-07 09:30;61,15
2016-05-07 09:45;60,95
2016-05-07 10:00;64,6
2016-05-07 10:15;63,8
2016-05-07 10:30;61,45
2016-05-07 10:45;64,3
2016-05-07 11:00;63,65
2016-05-07 11:15;62,05
2016-05-07 11:30;61,2
2016-05-07 11:45;61,7
2016-05-07 12:00;60,65
2016-05-07 12:15;59,7
2016-05-07 12:30;60,9
2016-05-07 12:45;60,5
2016-05-07 13:00;61,9
2016-05-07 13:15;60,85
2016-05-07 13:30;61,7
2016-05-07 13:45;59,55
2016-05-07 14:00;61,9
2016-05-07 14:15;59,55
2016-05-07 14:30;61,2
2016-05-07 14:45;59,05
2016-05-07 15:00;60,75
2016-05-07 15:15;60,8
2016-05-07 15:30;61,8
2016-05-07 15:45;59,75
2016-05-07 16:00;61,7
2016-05-07 16:15;61,9
2016-05-07 16:30;62,15
2016-05-07 16:45;61
2016-05-07 17:00;64,9
2016-05-07 17:15;62,7
2016-05-07 17:30;62,9
2016-05-07 17:45;63,05
2016-05-07 18:00;65,4
2016-05-07 18:15;62,9
2016-05-07 18:30;64,8
2016-05-07 18:45;62,9
2016-05-07 19:00;64,95
2016-05-07 19:15;69,25
2016-05-07 19:30;72,4
2016-05-07 19:45;70,3
2016-05-07 20:00;75,95
2016-05-07 20:15;78,65
2016-05-07 20:30;83,4
2016-05-07 20:45;87,75
2016-05-07 21:00;86,4
2016-05-07 21:15;87,5
2016-05-07 21:30;85,85
2016-05-07 21:45;87,85
2016-05-07 22:00;85,9
2016-05-07 22:15;86,8
2016-05-07 22:30;86,75
2016-05-07 22:45;84,6
2016-05-07 23:00;85,05
2016-05-07 23:15;81,3
2016-05-07 23:30;81,5
2016-05-07 23:45;79,9
2016-05-08 00:00;81,1
2016-05-08 00:15;81,7
2016-05-08 00:30;79
2016-05-08 00:45;80,15
2016-05-08 01:00;83,6
2016-05-08 01:15;84,85
2016-05-08 01:30;84,65
2016-05-08 01:45;85,1
2016-05-08 02:00;83,9
2016-05-08 02:15;78,45
2016-05-08 02:30;78,3
2016-05-08 02:45;75,6
2016-05-08 03:00;76,05
2016-05-08 03:15;75,4
2016-05-08 03:30;76,1
2016-05-08 03:45;76,2
2016-05-08 04:00;74,65
2016-05-08 04:15;77
2016-05-08 04:30;75,5
2016-05-08 04:45;76,45
2016-05-08 05:00;77,35
2016-05-08 05:15;74,75
2016-05-08 05:30;75,95
2016-05-08 05:45;74,1
2016-05-08 06:00;80,75
2016-05-08 06:15;77,15
2016-05-08 06:30;81,3
2016-05-08 06:45;81,6
2016-05-08 07:00;77,25
2016-05-08 07:15;79,95
2016-05-08 07:30;78,1
2016-05-08 07:45;78,7
2016-05-08 08:00;73,85
2016-05-08 08:15;73,2
2016-05-08 08:30;71,35
2016-05-08 08:45;69,05
2016-05-08 09:00;72,7
2016-05-08 09:15;69,85
2016-05-08 09:30;73,75
2016-05-08 09:45;71,85
2016-05-08 10:00;71,5
2016-05-08 10:15;72,25
2016-05-08 10:30;74,3
2016-05-08 10:45;76,25
2016-05-08 11:00;76
2016-05-08 11:15;74,05
2016-05-08 11:30;72
2016-05-08 11:45;73,5
2016-05-08 12:00;71,3
2016-05-08 12:15;75,7
2016-05-08 12:30;73,8
2016-05-08 12:45;77,7
2016-05-08 13:00;76,55
2016-05-08 13:15;75,85
2016-05-08 13:30;75,5
2016-05-08 13:45;74,2
2016-05-08 14:00;78,8
2016-05-08 14:15;81,9
2016-05-08 14:30;81,6
2016-05-08 14:45;79,8
2016-05-08 15:00;72,7
2016-05-08 15:15;74,25
2016-05-08 15:30;75,35
2016-05-08 15:45;74,7
2016-05-08 16:00;75,6
2016-05-08 16:15;74,7
2016-05-08 16:30;79,2
2016-05-08 16:45;76,25
2016-05-08 17:00;77,25
2016-05-08 17:15;75,6
2016-05-08 17:30;76,2
2016-05-08 17:45;75,5
2016-05-08 18:00;75,25
2016-05-08 18:15;78,35
2016-05-08 18:30;76
2016-05-08 18:45;76,8
2016-05-08 19:00;77,6
2016-05-08 19:15;79,9
2016-05-08 19:30;80,5
2016-05-08 19:45;77,5
2016-05-08 20:00;79,45
2016-05-08 20:15;78,35
2016-05-08 20:30;90,3
2016-05-08 20:45;92,6
2016-05-08 21:00;92,35
2016-05-08 21:15;93,45
2016-05-08 21:30;91,4
2016-05-08 21:45;87,45
2016-05-08 22:00;84,25
2016-05-08 22:15;84,6
2016-05-08 22:30;85,4
2016-05-08 22:45;84,6
2016-05-08 23:00;85,25
2016-05-08 23:15;82,25
2016-05-08 23:30;83,85
2016-05-08 23:45;82,5

